N1YZ Weather Reports


Display with metric or nautical units.
time (UTC)temp
F
wind
direction
speed
MPH
gust
MPH
rain 1hr
in
rain 24hr
in
rain mn
in
humidity
%
barometer
mb
20260509182642 72 4 0.0 0.0 0.00 0.03 0.03 80 1031.8
20260509182140 71 351 0.0 0.0 0.00 0.03 0.03 81 1031.7
20260509181638 71 355 0.0 0.0 0.00 0.03 0.03 88 1031.8
20260509181135 71 353 0.0 0.0 0.00 0.03 0.03 86 1032.1
20260509180631 69 356 0.0 0.0 0.00 0.03 0.03 84 1032.1
20260509180128 69 351 0.0 1.0 0.00 0.03 0.03 89 1032.2
20260509175623 68 4 0.0 0.0 0.00 0.03 0.03 88 1032.4
20260509175121 68 5 0.0 0.0 0.00 0.03 0.03 89 1032.3
20260509174617 68 342 0.0 0.0 0.00 0.03 0.03 92 1032.3
20260509174112 68 9 0.0 0.0 0.00 0.03 0.03 90 1032.5
20260509173608 68 348 0.0 0.0 0.00 0.03 0.03 91 1032.5
20260509173104 67 4 0.0 0.0 0.00 0.03 0.03 92 1032.6
20260509172601 67 4 0.0 0.0 0.00 0.03 0.03 93 1032.6
20260509172057 67 9 0.0 0.0 0.00 0.03 0.03 92 1032.5
20260509171553 67 8 0.0 0.0 0.00 0.03 0.03 92 1032.5
20260509171049 67 16 0.0 0.0 0.00 0.03 0.03 92 1032.4
20260509170545 67 16 0.0 0.0 0.00 0.03 0.03 93 1032.4
20260509170041 67 350 0.0 0.0 0.00 0.03 0.03 94 1032.4
20260509165540 67 8 0.0 0.0 0.00 0.03 0.03 93 1032.4
20260509165035 67 26 0.0 0.0 0.00 0.03 0.03 93 1032.3
20260509164532 67 338 0.0 0.0 0.00 0.03 0.03 95 1032.5
20260509164027 66 359 0.0 0.0 0.00 0.03 0.03 99 1032.6
20260509163526 66 23 0.0 0.0 0.00 0.03 0.03 99 1032.4
20260509163020 65 350 0.0 0.0 0.00 0.03 0.03 99 1033.0
20260509162518 65 350 0.0 0.0 0.00 0.03 0.03 99 1032.8
20260509162014 65 351 0.0 0.0 0.00 0.03 0.03 99 1032.7
20260509161510 64 351 0.0 0.0 0.00 0.03 0.03 99 1032.7
20260509161005 64 351 0.0 0.0 0.00 0.03 0.03 99 1032.5
20260509160501 64 351 0.0 0.0 0.00 0.03 0.03 99 1032.9
20260509155956 63 355 0.0 0.0 0.00 0.03 0.03 99 1032.7
20260509155453 63 355 0.0 0.0 0.00 0.03 0.03 99 1032.7
20260509154949 63 354 0.0 0.0 0.00 0.03 0.03 99 1032.9
20260509154446 63 355 0.0 0.0 0.00 0.03 0.03 99 1032.7
20260509153943 63 354 0.0 0.0 0.00 0.03 0.03 99 1032.6
20260509153440 63 358 0.0 0.0 0.00 0.03 0.03 99 1032.8
20260509152937 63 350 0.0 0.0 0.00 0.03 0.03 99 1032.7
20260509152433 62 350 0.0 0.0 0.00 0.03 0.03 99 1032.8
20260509151930 63 359 0.0 0.0 0.00 0.03 0.03 99 1032.9
20260509151426 62 18 0.0 0.0 0.00 0.03 0.03 99 1033.1
20260509150925 62 3 0.0 0.0 0.00 0.03 0.03 99 1032.9
20260509150421 62 13 0.0 0.0 0.00 0.03 0.03 99 1032.5
20260509145919 62 351 0.0 0.0 0.00 0.03 0.03 99 1032.6
20260509145414 62 348 1.0 1.0 0.00 0.03 0.03 99 1032.7
20260509144910 62 354 0.0 0.0 0.00 0.03 0.03 99 1032.6
20260509144407 62 126 1.0 2.0 0.00 0.03 0.03 99 1032.5
20260509143903 62 347 0.0 0.0 0.00 0.03 0.03 99 1032.7
20260509143401 62 349 0.0 0.0 0.00 0.03 0.03 99 1032.6
20260509142857 62 350 0.0 0.0 0.00 0.03 0.03 99 1032.7
20260509142354 61 7 0.0 0.0 0.00 0.03 0.03 99 1032.6
20260509141849 61 0 0.0 0.0 0.00 0.03 0.03 99 1032.6
20260509141347 61 355 0.0 0.0 0.00 0.03 0.03 99 1032.8
20260509140843 61 4 0.0 0.0 0.00 0.03 0.03 99 1032.8
20260509140340 61 7 0.0 0.0 0.00 0.03 0.03 99 1032.7
20260509135838 61 7 0.0 0.0 0.00 0.03 0.03 99 1032.8
20260509135335 61 2 0.0 0.0 0.00 0.03 0.03 99 1032.9
20260509134833 61 36 0.0 0.0 0.00 0.03 0.03 99 1032.8
20260509134330 61 23 0.0 0.0 0.00 0.03 0.03 99 1033.1
20260509133826 61 10 0.0 0.0 0.00 0.03 0.03 99 1032.8
20260509133323 61 357 1.0 1.0 0.00 0.03 0.03 99 1032.8
20260509132822 61 11 0.0 0.0 0.00 0.03 0.03 99 1032.7
20260509132320 61 12 0.0 0.0 0.00 0.03 0.03 99 1032.2
20260509131817 61 5 0.0 0.0 0.00 0.03 0.03 99 1032.3
20260509131314 61 4 0.0 0.0 0.00 0.03 0.03 99 1032.1
20260509130810 61 3 0.0 0.0 0.00 0.03 0.03 99 1032.2
20260509130306 61 9 0.0 0.0 0.00 0.03 0.03 99 1032.0
20260509125802 61 9 0.0 0.0 0.00 0.03 0.03 99 1032.0
20260509125258 61 9 0.0 0.0 0.00 0.03 0.03 99 1032.1
20260509124755 61 9 0.0 0.0 0.00 0.03 0.03 99 1031.9
20260509124252 61 9 0.0 0.0 0.00 0.03 0.03 99 1031.7
20260509123750 61 348 0.0 0.0 0.00 0.03 0.03 99 1031.7
20260509123247 61 348 0.0 0.0 0.00 0.03 0.03 99 1031.9
20260509122743 61 355 0.0 0.0 0.00 0.03 0.03 99 1031.9
20260509122240 61 355 0.0 0.0 0.00 0.03 0.03 99 1031.9
20260509121737 61 355 0.0 0.0 0.00 0.03 0.03 99 1031.9
20260509121234 60 355 0.0 0.0 0.00 0.03 0.03 99 1031.6
20260509120732 60 346 0.0 0.0 0.00 0.03 0.03 99 1031.8
20260509120230 60 346 0.0 0.0 0.00 0.03 0.03 99 1031.7
20260509115728 60 5 0.0 0.0 0.00 0.03 0.03 99 1031.5
20260509115224 60 6 0.0 0.0 0.00 0.03 0.03 99 1031.6
20260509114723 60 356 0.0 0.0 0.00 0.03 0.03 99 1031.6
20260509114221 60 357 0.0 0.0 0.00 0.03 0.03 99 1031.7
20260509113719 60 358 0.0 0.0 0.00 0.03 0.03 99 1031.6
20260509113216 60 3 0.0 0.0 0.00 0.03 0.03 99 1031.9
20260509112713 60 3 0.0 0.0 0.00 0.03 0.03 99 1031.7
20260509112210 60 2 0.0 0.0 0.00 0.03 0.03 99 1031.7
20260509111707 60 6 0.0 0.0 0.00 0.03 0.03 99 1031.7
20260509111204 60 5 0.0 0.0 0.00 0.03 0.03 99 1031.8
20260509110701 60 321 0.0 1.0 0.00 0.03 0.03 99 1031.5
20260509110158 60 13 0.0 0.0 0.00 0.03 0.03 99 1031.5
20260509105656 60 358 0.0 0.0 0.00 0.03 0.03 99 1031.5
20260509105153 60 355 0.0 0.0 0.00 0.03 0.03 99 1031.7
20260509104650 60 358 0.0 0.0 0.00 0.03 0.03 99 1031.7
20260509104147 60 358 0.0 0.0 0.00 0.03 0.03 99 1031.4
20260509103645 60 358 0.0 0.0 0.00 0.03 0.03 99 1031.4
20260509103142 60 358 0.0 0.0 0.00 0.03 0.03 99 1031.4
20260509102640 60 356 0.0 0.0 0.00 0.03 0.03 99 1031.2
20260509102137 60 356 0.0 0.0 0.00 0.03 0.03 99 1031.1
20260509101633 60 356 0.0 0.0 0.00 0.03 0.03 99 1031.3
20260509101130 60 356 0.0 0.0 0.00 0.03 0.03 99 1031.5
20260509100627 60 37 0.0 0.0 0.00 0.03 0.03 99 1031.2
20260509100124 60 37 0.0 0.0 0.00 0.03 0.03 99 1031.0
20260509095621 60 37 0.0 0.0 0.00 0.03 0.03 99 1030.5
20260509095118 60 48 0.0 0.0 0.00 0.03 0.03 99 1030.7
20260509094614 60 49 0.0 0.0 0.00 0.03 0.03 99 1030.5
20260509094112 60 50 0.0 0.0 0.00 0.03 0.03 99 1030.5
20260509093610 60 101 0.0 0.0 0.00 0.03 0.03 99 1030.4
20260509093107 60 57 0.0 0.0 0.00 0.03 0.03 99 1030.4
20260509092604 60 22 0.0 0.0 0.00 0.03 0.03 99 1030.1
20260509092103 60 23 0.0 0.0 0.00 0.03 0.03 99 1030.1
20260509091601 60 9 0.0 0.0 0.00 0.03 0.03 99 1029.9
20260509091056 60 11 0.0 0.0 0.00 0.03 0.03 99 1030.2
20260509090554 60 345 0.0 0.0 0.00 0.03 0.03 99 1030.4
20260509090052 60 348 0.0 0.0 0.00 0.03 0.03 99 1030.3
20260509085549 60 35 0.0 0.0 0.00 0.03 0.03 99 1030.2
20260509085044 59 93 0.0 0.0 0.00 0.03 0.03 99 1030.1
20260509084542 59 12 0.0 0.0 0.07 0.03 0.03 99 1030.2
20260509084039 59 15 1.0 2.0 0.12 0.03 0.03 99 1030.5
20260509083536 59 357 1.0 1.0 0.12 0.02 0.02 99 1030.9
20260509083033 59 352 0.0 0.0 0.07 0.01 0.01 99 1031.3
20260509082530 59 355 0.0 0.0 0.00 0.00 0.00 98 1031.7
20260509082027 59 356 0.0 0.0 0.00 0.00 0.00 98 1031.5
20260509081525 59 357 0.0 0.0 0.00 0.00 0.00 98 1031.5
20260509081021 59 356 0.0 0.0 0.00 0.00 0.00 98 1031.8
20260509080519 59 356 0.0 0.0 0.00 0.00 0.00 98 1031.8
20260509080017 59 356 0.0 0.0 0.00 0.00 0.00 98 1032.1
20260509075514 59 6 0.0 0.0 0.00 0.00 0.00 98 1032.0
20260509075012 59 33 0.0 0.0 0.00 0.00 0.00 98 1032.2
20260509074509 58 44 0.0 0.0 0.00 0.00 0.00 98 1031.9
20260509074005 58 42 0.0 0.0 0.00 0.00 0.00 98 1031.8
20260509073502 58 43 0.0 0.0 0.00 0.00 0.00 98 1031.5
20260509072958 58 43 0.0 0.0 0.00 0.00 0.00 98 1031.7
20260509072455 58 169 0.0 0.0 0.00 0.00 0.00 98 1031.6
20260509071952 58 175 0.0 0.0 0.00 0.00 0.00 98 1031.8
20260509071448 58 174 2.0 2.0 0.00 0.00 0.00 98 1031.5
20260509070946 58 181 0.0 1.0 0.00 0.00 0.00 98 1031.3
20260509070443 58 19 0.0 0.0 0.00 0.00 0.00 98 1030.8
20260509065938 58 33 0.0 0.0 0.00 0.00 0.00 98 1031.3
20260509065434 58 162 0.0 0.0 0.00 0.00 0.00 98 1031.3
20260509064931 58 166 0.0 0.0 0.00 0.00 0.00 98 1031.5
20260509064429 58 177 0.0 0.0 0.00 0.00 0.00 98 1031.5
20260509063927 58 183 0.0 0.0 0.00 0.00 0.00 98 1031.6
20260509063422 58 165 0.0 0.0 0.00 0.00 0.00 98 1031.6
20260509062919 57 179 0.0 0.0 0.00 0.00 0.00 98 1031.5
20260509062416 57 183 0.0 0.0 0.00 0.00 0.00 98 1031.3
20260509061914 57 186 0.0 0.0 0.00 0.00 0.00 98 1031.7
20260509061412 58 23 0.0 0.0 0.00 0.00 0.00 98 1031.2
20260509060908 57 30 0.0 0.0 0.00 0.00 0.00 98 1031.3
20260509060405 57 30 0.0 0.0 0.00 0.00 0.00 98 1031.4
20260509055900 57 56 0.0 0.0 0.00 0.00 0.00 98 1031.7
20260509055356 57 103 0.0 0.0 0.00 0.00 0.00 98 1031.7
20260509054853 57 82 0.0 0.0 0.00 0.00 0.00 98 1031.9
20260509054350 57 31 0.0 0.0 0.00 0.00 0.00 98 1031.7
20260509053848 57 31 0.0 0.0 0.00 0.00 0.00 97 1031.8
20260509053345 57 31 0.0 0.0 0.00 0.00 0.00 97 1031.6
20260509052843 57 31 0.0 0.0 0.00 0.00 0.00 97 1032.0
20260509052340 57 31 0.0 0.0 0.00 0.00 0.00 96 1032.2
20260509051838 57 32 0.0 0.0 0.00 0.00 0.00 96 1032.0
20260509051336 58 32 0.0 0.0 0.00 0.00 0.00 96 1032.1
20260509050832 58 33 0.0 0.0 0.00 0.00 0.00 96 1032.3
20260509050329 58 52 0.0 0.0 0.00 0.00 0.00 96 1032.2
20260509045826 58 53 0.0 0.0 0.00 0.00 0.00 96 1032.1
20260509045323 58 53 0.0 0.0 0.00 0.00 0.00 96 1032.3
20260509044820 58 49 0.0 0.0 0.00 0.00 0.00 96 1032.3
20260509044318 58 50 0.0 0.0 0.00 0.00 0.00 96 1032.2
20260509043814 58 72 0.0 0.0 0.00 0.00 0.00 95 1032.2
20260509043310 58 70 0.0 0.0 0.00 0.00 0.00 95 1032.1
20260509042806 58 100 0.0 0.0 0.00 0.00 0.00 95 1032.3
20260509042306 58 58 0.0 0.0 0.00 0.00 0.00 95 1032.1
20260509041759 58 50 0.0 0.0 0.00 0.00 0.00 95 1032.1
20260509041256 58 53 0.0 0.0 0.00 0.00 0.00 95 1032.1
20260509040755 58 46 0.0 0.0 0.00 0.00 0.00 94 1032.3
20260509040252 58 47 0.0 0.0 0.00 0.00 0.00 94 1032.1
20260509035749 58 53 0.0 0.0 0.00 0.00 0.00 94 1032.0
20260509035246 58 53 0.0 0.0 0.00 0.00 0.00 94 1032.2
20260509034742 58 55 0.0 0.0 0.00 0.00 0.00 94 1032.3
20260509034240 58 59 0.0 0.0 0.00 0.00 0.00 94 1032.4
20260509033737 58 51 0.0 0.0 0.00 0.00 0.00 94 1032.1
20260509033234 59 53 0.0 0.0 0.00 0.00 0.00 94 1032.5
20260509032731 59 42 0.0 0.0 0.00 0.00 0.00 94 1032.3
20260509032228 59 40 0.0 0.0 0.00 0.00 0.00 93 1032.5
20260509031725 59 40 0.0 0.0 0.00 0.00 0.00 93 1032.4
20260509031223 59 40 0.0 0.0 0.00 0.00 0.00 93 1032.1
20260509030721 59 40 0.0 0.0 0.00 0.00 0.00 92 1032.3
20260509030218 59 41 0.0 0.0 0.00 0.00 0.00 92 1032.0
20260509025714 59 30 0.0 0.0 0.00 0.00 0.00 92 1031.8
20260509025210 59 26 0.0 0.0 0.00 0.00 0.00 91 1031.9
20260509024705 59 26 0.0 0.0 0.00 0.00 0.00 91 1032.2
20260509024202 59 26 0.0 0.0 0.00 0.00 0.00 90 1032.1
20260509023659 59 26 0.0 0.0 0.00 0.00 0.00 90 1032.2
20260509023156 59 43 0.0 0.0 0.00 0.00 0.00 90 1032.3
20260509022646 59 37 0.0 0.0 0.00 0.00 0.00 91 1032.4
20260509022145 59 48 0.0 0.0 0.00 0.00 0.00 91 1032.5
20260509021641 59 87 0.0 0.0 0.00 0.00 0.00 92 1032.2
20260509021138 59 309 0.0 0.0 0.00 0.00 0.00 92 1032.3
20260509020637 59 352 0.0 0.0 0.00 0.00 0.00 91 1032.5
20260509020133 59 354 0.0 0.0 0.00 0.00 0.00 91 1032.5
20260509015632 59 354 0.0 0.0 0.00 0.00 0.00 91 1032.4
20260509015129 59 357 0.0 0.0 0.00 0.00 0.00 91 1032.2
20260509014625 59 357 0.0 0.0 0.00 0.00 0.00 90 1032.2
20260509014122 59 357 0.0 0.0 0.00 0.00 0.00 89 1032.1
20260509013619 59 357 0.0 0.0 0.00 0.00 0.00 90 1032.1
20260509013114 59 357 0.0 0.0 0.00 0.00 0.00 90 1032.1
20260509012612 59 357 0.0 0.0 0.00 0.00 0.00 90 1031.8
20260509012108 59 357 0.0 0.0 0.00 0.00 0.00 89 1031.9
20260509011606 59 357 0.0 0.0 0.00 0.00 0.00 89 1032.1
20260509011103 59 357 0.0 0.0 0.00 0.00 0.00 89 1032.0
20260509010601 59 357 0.0 0.0 0.00 0.00 0.00 90 1032.3
20260509010057 59 357 0.0 0.0 0.00 0.00 0.00 90 1032.2
20260509005555 60 357 0.0 0.0 0.00 0.00 0.00 90 1032.2
20260509005050 60 357 0.0 0.0 0.00 0.00 0.00 88 1032.4
20260509004547 60 357 0.0 0.0 0.00 0.00 0.00 88 1032.2
20260509004044 60 357 0.0 0.0 0.00 0.00 0.00 88 1032.3
20260509003543 60 357 0.0 0.0 0.00 0.00 0.00 88 1032.3
20260509003039 60 357 0.0 0.0 0.00 0.00 0.00 88 1032.4
20260509002537 60 357 0.0 0.0 0.00 0.00 0.00 87 1032.3
20260509002034 60 357 0.0 0.0 0.00 0.00 0.00 88 1032.3
20260509001532 60 357 0.0 0.0 0.00 0.00 0.00 88 1032.3
20260509001027 60 357 0.0 0.0 0.00 0.00 0.00 89 1032.4
20260509000526 60 357 0.0 0.0 0.00 0.00 0.00 90 1032.4
20260509000021 60 357 0.0 0.0 0.00 0.00 0.00 89 1032.3
20260508235519 60 357 0.0 0.0 0.00 0.00 0.00 88 1032.6
20260508235015 61 357 0.0 0.0 0.00 0.00 0.00 89 1032.8
20260508234507 61 357 0.0 0.0 0.00 0.00 0.00 86 1032.7
20260508234004 61 357 0.0 0.0 0.00 0.00 0.00 86 1033.2
20260508233503 61 357 0.0 0.0 0.00 0.00 0.00 86 1033.3
20260508233000 61 357 0.0 0.0 0.00 0.00 0.00 85 1033.2
20260508232457 61 357 0.0 0.0 0.00 0.00 0.00 85 1033.2
20260508231954 61 357 0.0 0.0 0.00 0.00 0.00 85 1033.3
20260508231451 62 357 0.0 0.0 0.00 0.00 0.00 86 1033.4
20260508230949 62 357 0.0 0.0 0.00 0.00 0.00 85 1033.6
20260508230445 62 357 0.0 0.0 0.00 0.00 0.00 85 1033.5
20260508225942 62 357 0.0 0.0 0.00 0.00 0.00 87 1033.3
20260508225439 62 358 0.0 0.0 0.00 0.00 0.00 87 1033.4
20260508224936 62 358 0.0 0.0 0.00 0.00 0.00 87 1033.1
20260508224434 62 358 0.0 0.0 0.00 0.00 0.00 86 1033.3
20260508223931 62 358 0.0 0.0 0.00 0.00 0.00 85 1033.5
20260508223429 62 358 0.0 0.0 0.00 0.00 0.00 85 1033.4
20260508222925 62 358 0.0 0.0 0.00 0.00 0.00 84 1033.6
20260508222423 62 358 0.0 0.0 0.00 0.00 0.00 83 1033.5
20260508221919 62 358 0.0 0.0 0.00 0.00 0.00 84 1033.6
20260508221414 62 358 0.0 0.0 0.00 0.00 0.00 85 1033.5
20260508220912 62 357 0.0 0.0 0.00 0.00 0.00 86 1033.5
20260508220408 62 358 0.0 0.0 0.00 0.00 0.00 86 1033.6
20260508215904 62 358 0.0 0.0 0.00 0.00 0.00 86 1033.4
20260508215402 63 358 0.0 0.0 0.00 0.00 0.00 85 1033.4
20260508214858 63 358 0.0 0.0 0.00 0.00 0.00 84 1033.4
20260508214356 63 358 0.0 0.0 0.00 0.00 0.00 84 1033.3
20260508213852 63 357 0.0 0.0 0.00 0.00 0.00 83 1033.3
20260508213349 63 358 0.0 0.0 0.00 0.00 0.00 83 1033.5
20260508212845 63 358 0.0 0.0 0.00 0.00 0.00 84 1033.7
20260508212341 63 358 0.0 0.0 0.00 0.00 0.00 84 1033.5
20260508211837 63 1 0.0 0.0 0.00 0.00 0.00 83 1033.7
20260508211333 63 1 0.0 0.0 0.00 0.00 0.00 81 1033.7
20260508210830 63 0 0.0 0.0 0.00 0.00 0.00 81 1033.6
20260508210327 63 5 0.0 0.0 0.00 0.00 0.00 84 1033.9
20260508205818 63 6 0.0 0.0 0.00 0.00 0.00 83 1033.9
20260508205314 63 6 0.0 0.0 0.00 0.00 0.00 82 1033.9
20260508204811 63 6 0.0 0.0 0.00 0.00 0.00 81 1033.8
20260508204307 63 6 0.0 0.0 0.00 0.00 0.00 81 1034.1
20260508203803 63 6 0.0 0.0 0.00 0.00 0.00 80 1033.8
20260508203300 63 6 0.0 0.0 0.00 0.00 0.00 81 1033.6
20260508202755 64 6 0.0 0.0 0.00 0.00 0.00 81 1033.8
20260508202253 64 6 0.0 0.0 0.00 0.00 0.00 79 1034.0
20260508201750 64 6 0.0 0.0 0.00 0.00 0.00 81 1033.9
20260508201247 64 6 0.0 0.0 0.00 0.00 0.00 81 1033.9
20260508200743 64 7 0.0 0.0 0.00 0.00 0.00 82 1033.9
20260508200240 64 6 0.0 0.0 0.00 0.00 0.00 82 1034.0
20260508195736 64 7 0.0 0.0 0.00 0.00 0.00 79 1033.9
20260508195232 64 6 0.0 0.0 0.00 0.00 0.00 78 1034.2
20260508194729 64 6 0.0 0.0 0.00 0.00 0.00 78 1034.1
20260508194226 64 6 0.0 0.0 0.00 0.00 0.00 78 1034.1
20260508193723 63 7 0.0 0.0 0.00 0.00 0.00 80 1034.2
20260508193220 64 7 0.0 0.0 0.00 0.00 0.00 79 1034.4
20260508192716 64 7 0.0 0.0 0.00 0.00 0.00 78 1034.3
20260508192213 64 6 0.0 0.0 0.00 0.00 0.00 77 1034.3
20260508191711 64 6 0.0 1.0 0.00 0.00 0.00 75 1034.3
20260508191202 64 30 0.0 0.0 0.00 0.00 0.00 75 1034.4
20260508190700 64 192 1.0 1.0 0.00 0.00 0.00 75 1034.2
20260508190155 64 19 0.0 0.0 0.00 0.00 0.00 83 1033.8
20260508185652 64 10 0.0 0.0 0.00 0.00 0.00 81 1033.8
20260508185150 64 316 0.0 0.0 0.00 0.00 0.00 74 1034.4
20260508184647 64 26 0.0 0.0 0.00 0.00 0.00 81 1034.3
20260508184144 64 8 0.0 0.0 0.00 0.00 0.00 78 1034.3
20260508183641 63 356 0.0 0.0 0.00 0.00 0.00 80 1034.7
20260508183136 64 353 0.0 0.0 0.00 0.00 0.00 77 1034.5